Location: Beekmeers
(50.8953°N, 3.6968°E)
Time: 05:34:05
(UTC+00:00)

Cosmos 2360 Rocket - Pass Details

Date: 23 May 2024
Orbit: 832 x 846 km, 71.0° (Epoch: 19 June)

Event Time Altitude Azimuth Distance (km) Brightness Sun altitude
Rises 00:12:25 0° 331° (NNW) 3,416 6.3 -18.2°
Reaches altitude 10° 00:15:20 10° 345° (NNW) 2,479 5.7 -18.1°
Maximum altitude 00:19:57 25° 40° (NE) 1,665 4.4 -18.0°
Drops below altitude 10° 00:24:33 10° 94° (E) 2,471 4.7 -17.9°
Sets 00:27:27 0° 108° (ESE) 3,403 5.3 -17.8°
